Time,TemperatureF,DewpointF,PressureIn,WindDirection,WindDirectionDegrees,WindSpeedMPH,WindSpeedGustMPH,Humidity,HourlyPrecipIn,Conditions,Clouds,dailyrainin,SolarRadiationWatts/m^2,SoftwareType,DateUTC
2013-02-15 00:01:00,16.0,7.0,-100.00,NNW,348,3.0,9.0,68,0.00,,,0.00,0.000000,,2013-02-15 06:01:00,
2013-02-15 00:32:00,16.0,7.0,-100.00,NNW,348,3.0,9.0,68,0.00,,,0.00,0.000000,,2013-02-15 06:32:00,
2013-02-15 00:42:00,16.0,7.0,-100.00,NNW,348,3.0,9.0,68,0.00,,,0.00,0.000000,,2013-02-15 06:42:00,
2013-02-15 00:52:00,16.0,7.0,-100.00,NNW,348,3.0,9.0,68,0.00,,,0.00,0.000000,,2013-02-15 06:52:00,
2013-02-15 01:01:00,16.0,8.0,-100.00,NNW,335,5.0,9.0,69,0.00,,,0.00,0.000000,,2013-02-15 07:01:00,
2013-02-15 01:21:00,16.0,8.0,-100.00,NNW,335,5.0,9.0,69,0.00,,,0.00,0.000000,,2013-02-15 07:21:00,
2013-02-15 01:32:00,16.0,8.0,-100.00,NNW,335,5.0,9.0,69,0.00,,,0.00,0.000000,,2013-02-15 07:32:00,
2013-02-15 01:42:00,16.0,8.0,-100.00,NNW,335,5.0,9.0,69,0.00,,,0.00,0.000000,,2013-02-15 07:42:00,
2013-02-15 01:52:00,16.0,8.0,-100.00,NNW,335,5.0,9.0,69,0.00,,,0.00,0.000000,,2013-02-15 07:52:00,
2013-02-15 02:01:00,15.0,9.0,-100.00,North,359,3.0,9.0,75,0.00,,,0.00,0.000000,,2013-02-15 08:01:00,
2013-02-15 02:21:00,15.0,9.0,-100.00,North,359,3.0,9.0,75,0.00,,,0.00,0.000000,,2013-02-15 08:21:00,
2013-02-15 02:32:00,15.0,9.0,-100.00,North,359,3.0,9.0,75,0.00,,,0.00,0.000000,,2013-02-15 08:32:00,
2013-02-15 02:42:00,15.0,9.0,-100.00,North,359,3.0,9.0,75,0.00,,,0.00,0.000000,,2013-02-15 08:42:00,
2013-02-15 02:53:00,15.0,9.0,-100.00,North,359,3.0,9.0,75,0.00,,,0.00,0.000000,,2013-02-15 08:53:00,
2013-02-15 03:01:00,14.0,10.0,-100.00,NW,322,2.0,6.0,82,0.00,,,0.00,0.000000,,2013-02-15 09:01:00,
2013-02-15 03:22:00,14.0,10.0,-100.00,NW,322,2.0,6.0,82,0.00,,,0.00,0.000000,,2013-02-15 09:22:00,
2013-02-15 03:32:00,14.0,10.0,-100.00,NW,322,2.0,6.0,82,0.00,,,0.00,0.000000,,2013-02-15 09:32:00,
2013-02-15 03:42:00,14.0,10.0,-100.00,NW,322,2.0,6.0,82,0.00,,,0.00,0.000000,,2013-02-15 09:42:00,
2013-02-15 03:52:00,14.0,10.0,-100.00,NW,322,2.0,6.0,82,0.00,,,0.00,0.000000,,2013-02-15 09:52:00,
2013-02-15 04:01:00,14.0,10.0,-100.00,NW,319,4.0,9.0,84,0.00,,,0.00,0.000000,,2013-02-15 10:01:00,
2013-02-15 04:32:00,14.0,10.0,-100.00,NW,319,4.0,9.0,84,0.00,,,0.00,0.000000,,2013-02-15 10:32:00,
2013-02-15 04:42:00,14.0,10.0,-100.00,NW,319,4.0,9.0,84,0.00,,,0.00,0.000000,,2013-02-15 10:42:00,
2013-02-15 04:52:00,14.0,10.0,-100.00,NW,319,4.0,9.0,84,0.00,,,0.00,0.000000,,2013-02-15 10:52:00,
2013-02-15 05:01:00,14.0,10.0,-100.00,NW,326,3.0,7.0,85,0.00,,,0.00,0.000000,,2013-02-15 11:01:00,
2013-02-15 05:32:00,14.0,10.0,-100.00,NW,326,3.0,7.0,85,0.00,,,0.00,0.000000,,2013-02-15 11:32:00,
2013-02-15 05:42:00,14.0,10.0,-100.00,NW,326,3.0,7.0,85,0.00,,,0.00,0.000000,,2013-02-15 11:42:00,
2013-02-15 05:52:00,14.0,10.0,-100.00,NW,326,3.0,7.0,85,0.00,,,0.00,0.000000,,2013-02-15 11:52:00,
2013-02-15 06:01:00,14.0,10.0,-100.00,NW,307,5.0,10.0,85,0.00,,,0.00,0.000000,,2013-02-15 12:01:00,
2013-02-15 06:22:00,14.0,10.0,-100.00,NW,307,5.0,10.0,85,0.00,,,0.00,0.000000,,2013-02-15 12:22:00,
2013-02-15 06:32:00,14.0,10.0,-100.00,NW,307,5.0,10.0,85,0.00,,,0.00,0.000000,,2013-02-15 12:32:00,
2013-02-15 06:42:00,14.0,10.0,-100.00,NW,307,5.0,10.0,85,0.00,,,0.00,0.000000,,2013-02-15 12:42:00,
2013-02-15 06:52:00,14.0,10.0,-100.00,NW,307,5.0,10.0,85,0.00,,,0.00,0.000000,,2013-02-15 12:52:00,
2013-02-15 07:01:00,13.0,9.0,-100.00,NW,319,3.0,8.0,85,0.00,,,0.00,0.000000,,2013-02-15 13:01:00,
2013-02-15 07:22:00,13.0,9.0,-100.00,NW,319,3.0,8.0,85,0.00,,,0.00,0.000000,,2013-02-15 13:22:00,
2013-02-15 07:32:00,13.0,9.0,-100.00,NW,319,3.0,8.0,85,0.00,,,0.00,0.000000,,2013-02-15 13:32:00,
2013-02-15 07:42:00,13.0,9.0,-100.00,NW,319,3.0,8.0,85,0.00,,,0.00,0.000000,,2013-02-15 13:42:00,
2013-02-15 07:52:00,13.0,9.0,-100.00,NW,319,3.0,8.0,85,0.00,,,0.00,0.000000,,2013-02-15 13:52:00,
2013-02-15 08:01:00,13.0,9.0,-100.00,WNW,300,4.0,7.0,83,0.00,,,0.00,9.000000,,2013-02-15 14:01:00,
2013-02-15 08:32:00,13.0,9.0,-100.00,WNW,300,4.0,7.0,83,0.00,,,0.00,9.000000,,2013-02-15 14:32:00,
2013-02-15 08:42:00,13.0,9.0,-100.00,WNW,300,4.0,7.0,83,0.00,,,0.00,9.000000,,2013-02-15 14:42:00,
2013-02-15 08:52:00,13.0,9.0,-100.00,WNW,300,4.0,7.0,83,0.00,,,0.00,9.000000,,2013-02-15 14:52:00,
2013-02-15 09:01:00,13.0,8.0,-100.00,WNW,287,5.0,9.0,81,0.00,,,0.00,36.000000,,2013-02-15 15:01:00,
2013-02-15 09:32:00,13.0,8.0,-100.00,WNW,287,5.0,9.0,81,0.00,,,0.00,36.000000,,2013-02-15 15:32:00,
2013-02-15 09:42:00,13.0,8.0,-100.00,WNW,287,5.0,9.0,81,0.00,,,0.00,36.000000,,2013-02-15 15:42:00,
2013-02-15 09:52:00,13.0,8.0,-100.00,WNW,287,5.0,9.0,81,0.00,,,0.00,36.000000,,2013-02-15 15:52:00,
2013-02-15 10:01:00,15.0,9.0,-100.00,NW,316,7.0,13.0,75,0.00,,,0.00,97.000000,,2013-02-15 16:01:00,
2013-02-15 10:32:00,15.0,9.0,-100.00,NW,316,7.0,13.0,75,0.00,,,0.00,97.000000,,2013-02-15 16:32:00,
2013-02-15 10:43:00,15.0,9.0,-100.00,NW,316,7.0,13.0,75,0.00,,,0.00,97.000000,,2013-02-15 16:43:00,
2013-02-15 10:52:00,15.0,9.0,-100.00,NW,316,7.0,13.0,75,0.00,,,0.00,97.000000,,2013-02-15 16:52:00,
2013-02-15 11:01:00,14.0,7.0,-100.00,NW,306,7.0,13.0,72,0.00,,,0.00,231.000000,,2013-02-15 17:01:00,
2013-02-15 11:32:00,14.0,7.0,-100.00,NW,306,7.0,13.0,72,0.00,,,0.00,231.000000,,2013-02-15 17:32:00,
2013-02-15 11:42:00,14.0,7.0,-100.00,NW,306,7.0,13.0,72,0.00,,,0.00,231.000000,,2013-02-15 17:42:00,
2013-02-15 11:52:00,14.0,7.0,-100.00,NW,306,7.0,13.0,72,0.00,,,0.00,231.000000,,2013-02-15 17:52:00,
2013-02-15 12:01:00,11.0,2.0,-100.00,WNW,303,9.0,18.0,67,0.00,,,0.00,239.000000,,2013-02-15 18:01:00,
2013-02-15 12:32:00,11.0,2.0,-100.00,WNW,303,9.0,18.0,67,0.00,,,0.00,239.000000,,2013-02-15 18:32:00,
2013-02-15 12:42:00,11.0,2.0,-100.00,WNW,303,9.0,18.0,67,0.00,,,0.00,239.000000,,2013-02-15 18:42:00,
2013-02-15 12:53:00,11.0,2.0,-100.00,WNW,303,9.0,18.0,67,0.00,,,0.00,239.000000,,2013-02-15 18:53:00,
2013-02-15 13:01:00,11.0,3.0,-100.00,NNW,335,7.0,14.0,69,0.00,,,0.00,252.000000,,2013-02-15 19:01:00,
2013-02-15 13:32:00,11.0,3.0,-100.00,NNW,335,7.0,14.0,69,0.00,,,0.00,252.000000,,2013-02-15 19:32:00,
2013-02-15 13:42:00,11.0,3.0,-100.00,NNW,335,7.0,14.0,69,0.00,,,0.00,252.000000,,2013-02-15 19:42:00,
2013-02-15 13:52:00,11.0,3.0,-100.00,NNW,335,7.0,14.0,69,0.00,,,0.00,252.000000,,2013-02-15 19:52:00,
2013-02-15 14:01:00,10.0,2.0,-100.00,NNW,328,9.0,16.0,70,0.00,,,0.00,221.000000,,2013-02-15 20:01:00,
2013-02-15 14:22:00,10.0,2.0,-100.00,NNW,328,9.0,16.0,70,0.00,,,0.00,221.000000,,2013-02-15 20:22:00,
2013-02-15 14:32:00,10.0,2.0,-100.00,NNW,328,9.0,16.0,70,0.00,,,0.00,221.000000,,2013-02-15 20:32:00,
2013-02-15 14:42:00,10.0,2.0,-100.00,NNW,328,9.0,16.0,70,0.00,,,0.00,221.000000,,2013-02-15 20:42:00,
2013-02-15 14:52:00,10.0,2.0,-100.00,NNW,328,9.0,16.0,70,0.00,,,0.00,221.000000,,2013-02-15 20:52:00,
2013-02-15 15:01:00,11.0,2.0,-100.00,NW,321,8.0,17.0,67,0.00,,,0.00,371.000000,,2013-02-15 21:01:00,
2013-02-15 15:32:00,11.0,2.0,-100.00,NW,321,8.0,17.0,67,0.00,,,0.00,371.000000,,2013-02-15 21:32:00,
2013-02-15 15:42:00,11.0,2.0,-100.00,NW,321,8.0,17.0,67,0.00,,,0.00,371.000000,,2013-02-15 21:42:00,
2013-02-15 15:52:00,11.0,2.0,-100.00,NW,321,8.0,17.0,67,0.00,,,0.00,371.000000,,2013-02-15 21:52:00,
2013-02-15 16:01:00,10.0,3.0,-100.00,NW,317,7.0,15.0,74,0.00,,,0.00,180.000000,,2013-02-15 22:01:00,
2013-02-15 16:32:00,10.0,3.0,-100.00,NW,317,7.0,15.0,74,0.00,,,0.00,180.000000,,2013-02-15 22:32:00,
2013-02-15 16:42:00,10.0,3.0,-100.00,NW,317,7.0,15.0,74,0.00,,,0.00,180.000000,,2013-02-15 22:42:00,
2013-02-15 16:52:00,10.0,3.0,-100.00,NW,317,7.0,15.0,74,0.00,,,0.00,180.000000,,2013-02-15 22:52:00,
2013-02-15 17:01:00,8.0,-1.0,-100.00,WNW,300,5.0,11.0,67,0.00,,,0.00,82.000000,,2013-02-15 23:01:00,
2013-02-15 17:32:00,8.0,-1.0,-100.00,WNW,300,5.0,11.0,67,0.00,,,0.00,82.000000,,2013-02-15 23:32:00,
2013-02-15 17:42:00,8.0,-1.0,-100.00,WNW,300,5.0,11.0,67,0.00,,,0.00,82.000000,,2013-02-15 23:42:00,
2013-02-15 17:52:00,8.0,-1.0,-100.00,WNW,300,5.0,11.0,67,0.00,,,0.00,82.000000,,2013-02-15 23:52:00,
2013-02-15 18:01:00,5.0,0.0,-100.00,West,272,2.0,8.0,78,0.00,,,0.00,6.000000,,2013-02-16 00:01:00,
2013-02-15 18:22:00,5.0,0.0,-100.00,West,272,2.0,8.0,78,0.00,,,0.00,6.000000,,2013-02-16 00:22:00,
2013-02-15 18:32:00,5.0,0.0,-100.00,West,272,2.0,8.0,78,0.00,,,0.00,6.000000,,2013-02-16 00:32:00,
2013-02-15 18:42:00,5.0,0.0,-100.00,West,272,2.0,8.0,78,0.00,,,0.00,6.000000,,2013-02-16 00:42:00,
2013-02-15 18:52:00,5.0,0.0,-100.00,West,272,2.0,8.0,78,0.00,,,0.00,6.000000,,2013-02-16 00:52:00,
2013-02-15 19:01:00,0.0,-5.0,-100.00,WSW,242,2.0,2.0,79,0.00,,,0.00,0.000000,,2013-02-16 01:01:00,
2013-02-15 19:32:00,0.0,-5.0,-100.00,WSW,242,2.0,2.0,79,0.00,,,0.00,0.000000,,2013-02-16 01:32:00,
2013-02-15 19:42:00,0.0,-5.0,-100.00,WSW,242,2.0,2.0,79,0.00,,,0.00,0.000000,,2013-02-16 01:42:00,
2013-02-15 19:52:00,0.0,-5.0,-100.00,WSW,242,2.0,2.0,79,0.00,,,0.00,0.000000,,2013-02-16 01:52:00,
2013-02-15 20:01:00,1.0,-4.0,-100.00,WSW,248,2.0,3.0,79,0.00,,,0.00,0.000000,,2013-02-16 02:01:00,
2013-02-15 20:22:00,1.0,-4.0,-100.00,WSW,248,2.0,3.0,79,0.00,,,0.00,0.000000,,2013-02-16 02:22:00,
2013-02-15 20:32:00,1.0,-4.0,-100.00,WSW,248,2.0,3.0,79,0.00,,,0.00,0.000000,,2013-02-16 02:32:00,
2013-02-15 20:42:00,1.0,-4.0,-100.00,WSW,248,2.0,3.0,79,0.00,,,0.00,0.000000,,2013-02-16 02:42:00,
2013-02-15 20:52:00,1.0,-4.0,-100.00,WSW,248,2.0,3.0,79,0.00,,,0.00,0.000000,,2013-02-16 02:52:00,
2013-02-15 21:01:00,6.0,2.0,-100.00,West,274,2.0,4.0,84,0.00,,,0.00,0.000000,,2013-02-16 03:01:00,
2013-02-15 21:32:00,6.0,2.0,-100.00,West,274,2.0,4.0,84,0.00,,,0.00,0.000000,,2013-02-16 03:32:00,
2013-02-15 21:42:00,6.0,2.0,-100.00,West,274,2.0,4.0,84,0.00,,,0.00,0.000000,,2013-02-16 03:42:00,
2013-02-15 21:52:00,6.0,2.0,-100.00,West,274,2.0,4.0,84,0.00,,,0.00,0.000000,,2013-02-16 03:52:00,
2013-02-15 22:01:00,8.0,4.0,-100.00,NW,304,6.0,10.0,82,0.00,,,0.00,0.000000,,2013-02-16 04:01:00,
2013-02-15 22:32:00,8.0,4.0,-100.00,NW,304,6.0,10.0,82,0.00,,,0.00,0.000000,,2013-02-16 04:32:00,
2013-02-15 22:42:00,8.0,4.0,-100.00,NW,304,6.0,10.0,82,0.00,,,0.00,0.000000,,2013-02-16 04:42:00,
2013-02-15 22:52:00,8.0,4.0,-100.00,NW,304,6.0,10.0,82,0.00,,,0.00,0.000000,,2013-02-16 04:52:00,
2013-02-15 23:01:00,7.0,3.0,-100.00,WNW,298,4.0,9.0,82,0.00,,,0.00,0.000000,,2013-02-16 05:01:00,
2013-02-15 23:32:00,7.0,3.0,-100.00,WNW,298,4.0,9.0,82,0.00,,,0.00,0.000000,,2013-02-16 05:32:00,
2013-02-15 23:42:00,7.0,3.0,-100.00,WNW,298,4.0,9.0,82,0.00,,,0.00,0.000000,,2013-02-16 05:42:00,
2013-02-15 23:52:00,7.0,3.0,-100.00,WNW,298,4.0,9.0,82,0.00,,,0.00,0.000000,,2013-02-16 05:52:00,